Kimball, NE

11:45 AM MDT on August 25, 2016 (GMT -0600)
Kimball Municipal-Arraj

Weather History for KIBM - October, 2013

Change the Weather History Date:

Thursday, October 31, 2013

  Actual Average (KSNY) Record (KSNY)
Temperature  
Mean Temperature 44 °F 45 °F  
Max Temperature 52 °F 59 °F 76 °F (1983)
Min Temperature 35 °F 30 °F -1 °F (1991)
Degree Days  
Heating Degree Days 22 20  
Month to date heating degree days 464  
Since 1 July heating degree days 603  
Cooling Degree Days 0 0  
Month to date cooling degree days 4  
Year to date cooling degree days 830  
Moisture  
Dew Point 25 °F    
Average Humidity 50    
Maximum Humidity 73    
Minimum Humidity 29    
Precipitation  
Precipitation 0.00 in 0.02 in 0.19 in (2000)
Month to date precipitation 1.02  
Year to date precipitation 17.43  
Sea Level Pressure  
Sea Level Pressure 29.78 in    
Wind  
Wind Speed 18 mph (WNW)    
Max Wind Speed 40 mph    
Max Gust Speed 56 mph    
Visibility 10 miles    
Events Rain    
T = Trace of Precipitation, MM = Missing Value Source: NWS Daily Summary

Daily Weather History Graph

Daily Weather History Graph

Search for Another Location

Airport or City:

Trip Planner

Search our weather history database for the weather conditions in past years. The results will help you decide how hot, cold, wet, or windy it might be!

Date:

Astronomy

Oct. 31, 2013 Rise Set
Actual Time 8:25 AM CDT 6:50 PM CDT
Civil Twilight 7:56 AM CDT 7:19 PM CDT
Nautical Twilight 7:23 AM CDT 7:52 PM CDT
Astronomical Twilight 6:51 AM CDT 8:24 PM CDT
Moon 5:15 AM CDT (10/31) 5:11 PM CDT (10/31)
Length of Visible Light 11h 23m
Length of Day
10h 25m
Waning Crescent, 10% of the Moon is Illuminated
Oct 31
Waning Crescent
Nov 3
New
Nov 9
First Quarter
Nov 17
Full
Nov 25
Last Quarter

Hourly Weather History & Observations

Time (CDT) Temp. Windchill Dew Point Humidity Pressure Visibility Wind Dir Wind Speed Gust Speed Precip Events Conditions
12:15 AM 37.0 °F 30.4 °F 27.3 °F 68% 29.81 in 10.0 mi West 9.2 mph - N/A   Overcast
12:35 AM 39.6 °F 33.5 °F 26.6 °F 60% 29.80 in 10.0 mi West 9.2 mph - N/A   Overcast
12:55 AM 39.7 °F 33.2 °F 26.6 °F 59% 29.79 in 10.0 mi West 10.4 mph - N/A   Overcast
1:15 AM 39.6 °F 33.0 °F 26.1 °F 58% 29.79 in 10.0 mi West 10.4 mph - N/A   Overcast
1:35 AM 38.5 °F 32.1 °F 26.2 °F 61% 29.79 in 10.0 mi West 9.2 mph - N/A   Overcast
1:55 AM 37.9 °F 29.6 °F 26.2 °F 63% 29.79 in 10.0 mi West 13.8 mph - N/A   Scattered Clouds
2:15 AM 37.8 °F 29.4 °F 26.4 °F 64% 29.78 in 10.0 mi WNW 13.8 mph - N/A   Scattered Clouds
2:35 AM 36.7 °F 29.4 °F 26.6 °F 67% 29.78 in 10.0 mi WNW 10.4 mph - N/A   Clear
2:55 AM 35.6 °F 28.0 °F 27.0 °F 71% 29.77 in 10.0 mi West 10.4 mph - N/A   Clear
3:15 AM 35.1 °F 26.9 °F 27.3 °F 73% 29.78 in 10.0 mi West 11.5 mph - N/A   Clear
3:35 AM 35.4 °F 26.4 °F 27.5 °F 73% 29.77 in 10.0 mi West 13.8 mph - N/A   Clear
3:55 AM 36.9 °F 28.2 °F 27.7 °F 69% 29.77 in 10.0 mi West 13.8 mph - N/A   Scattered Clouds
4:15 AM 36.0 °F 27.5 °F 27.7 °F 72% 29.77 in 10.0 mi WNW 12.7 mph - N/A   Scattered Clouds
4:35 AM 37.4 °F 27.8 °F 27.5 °F 67% 29.77 in 10.0 mi WNW 17.3 mph 21.9 mph N/A   Scattered Clouds
4:55 AM 38.7 °F 29.8 °F 27.3 °F 64% 29.77 in 10.0 mi NW 16.1 mph 21.9 mph N/A   Mostly Cloudy
5:15 AM 38.7 °F 29.5 °F 27.1 °F 63% 29.77 in 10.0 mi NW 17.3 mph 21.9 mph N/A   Overcast
5:35 AM 38.3 °F 28.1 °F 26.6 °F 63% 29.77 in 10.0 mi WNW 20.7 mph 26.5 mph N/A   Scattered Clouds
5:55 AM 37.6 °F 28.4 °F 26.2 °F 64% 29.78 in 10.0 mi WNW 16.1 mph 26.5 mph N/A   Clear
6:15 AM 37.2 °F 28.3 °F 26.2 °F 65% 29.78 in 10.0 mi NW 15.0 mph - N/A   Clear
6:35 AM 36.7 °F 28.0 °F 25.9 °F 65% 29.79 in 10.0 mi NW 13.8 mph - N/A   Clear
6:55 AM 36.5 °F 27.8 °F 26.1 °F 66% 29.79 in 10.0 mi NW 13.8 mph - N/A   Scattered Clouds
7:15 AM 38.1 °F 28.8 °F 25.5 °F 61% 29.79 in 10.0 mi WNW 17.3 mph - N/A   Mostly Cloudy
7:35 AM 39.9 °F 30.8 °F 24.4 °F 54% 29.79 in 10.0 mi NW 18.4 mph 26.5 mph N/A   Overcast
7:55 AM 39.6 °F 30.0 °F 23.9 °F 54% 29.79 in 10.0 mi NW 19.6 mph 25.3 mph N/A   Overcast
8:15 AM 38.3 °F 29.0 °F 23.7 °F 56% 29.79 in 10.0 mi NW 17.3 mph 24.2 mph N/A   Scattered Clouds
8:35 AM 37.6 °F 27.7 °F 23.9 °F 58% 29.79 in 10.0 mi NW 18.4 mph 24.2 mph N/A   Clear
8:55 AM 37.8 °F 27.4 °F 24.1 °F 58% 29.79 in 10.0 mi NW 20.7 mph 26.5 mph N/A   Clear
9:15 AM 39.0 °F 28.8 °F 23.9 °F 55% 29.79 in 10.0 mi WNW 21.9 mph 32.2 mph N/A   Clear
9:35 AM 40.6 °F 30.4 °F 23.7 °F 51% 29.80 in 10.0 mi WNW 24.2 mph 33.4 mph N/A   Clear
9:55 AM 42.1 °F 31.9 °F 22.5 °F 46% 29.80 in 10.0 mi WNW 26.5 mph 34.5 mph N/A   Clear
10:15 AM 43.9 °F 33.8 °F 21.4 °F 41% 29.80 in 10.0 mi WNW 29.9 mph 39.1 mph N/A   Clear
10:35 AM 45.1 °F 35.3 °F 20.8 °F 38% 29.80 in 10.0 mi WNW 31.1 mph 46.0 mph N/A   Clear
10:55 AM 45.9 °F 35.4 °F 20.3 °F 36% 29.80 in 10.0 mi NW 38.0 mph 52.9 mph N/A   Clear
11:15 AM 46.8 °F - 20.5 °F 35% 29.80 in 10.0 mi WNW 32.2 mph 52.9 mph N/A   Clear
11:35 AM 47.8 °F - 20.7 °F 34% 29.80 in 10.0 mi WNW 35.7 mph 43.7 mph N/A   Clear
11:55 AM 48.6 °F - 20.1 °F 33% 29.80 in 10.0 mi WNW 35.7 mph 56.4 mph N/A   Clear
12:15 PM 49.1 °F - 20.3 °F 32% 29.80 in 10.0 mi WNW 35.7 mph 49.5 mph N/A   Clear
12:35 PM 50.4 °F - 21.0 °F 32% 29.80 in 10.0 mi WNW 38.0 mph 48.3 mph N/A   Clear
12:55 PM 50.9 °F - 21.4 °F 31% 29.80 in 10.0 mi WNW 34.5 mph 48.3 mph N/A   Clear
1:15 PM 50.9 °F - 21.4 °F 31% 29.79 in 10.0 mi WNW 40.3 mph 46.0 mph N/A   Clear
1:35 PM 51.4 °F - 21.2 °F 31% 29.78 in 10.0 mi WNW 38.0 mph 48.3 mph N/A   Clear
1:55 PM 51.8 °F - 21.0 °F 30% 29.78 in 10.0 mi WNW 33.4 mph 48.3 mph N/A   Clear
2:15 PM 51.8 °F - 21.2 °F 30% 29.77 in 10.0 mi WNW 38.0 mph 48.3 mph N/A   Clear
2:35 PM 51.8 °F - 21.7 °F 31% 29.77 in 10.0 mi WNW 36.8 mph 47.2 mph N/A   Clear
2:55 PM 52.5 °F - 21.4 °F 30% 29.76 in 10.0 mi WNW 28.8 mph 39.1 mph N/A   Clear
3:15 PM 52.7 °F - 20.7 °F 29% 29.76 in 10.0 mi WNW 29.9 mph 39.1 mph N/A   Clear
3:35 PM 50.0 °F - 23.4 °F 35% 29.76 in 10.0 mi WNW 33.4 mph 43.7 mph N/A   Clear
3:55 PM 50.0 °F - 23.7 °F 36% 29.76 in 10.0 mi WNW 33.4 mph 39.1 mph N/A   Mostly Cloudy
4:15 PM 50.0 °F - 24.8 °F 37% 29.76 in 10.0 mi WNW 24.2 mph 38.0 mph N/A   Overcast
4:35 PM 52.0 °F - 24.4 °F 34% 29.75 in 10.0 mi NW 25.3 mph 34.5 mph N/A   Scattered Clouds
4:55 PM 50.7 °F - 25.2 °F 37% 29.74 in 10.0 mi WNW 27.6 mph 41.4 mph N/A   Scattered Clouds
5:15 PM 52.0 °F - 24.6 °F 35% 29.74 in 10.0 mi WNW 28.8 mph 36.8 mph N/A   Clear
5:35 PM 51.8 °F - 25.0 °F 35% 29.74 in 10.0 mi WNW 26.5 mph 35.7 mph N/A   Clear
5:55 PM 50.9 °F - 25.5 °F 37% 29.75 in 10.0 mi WNW 26.5 mph 35.7 mph N/A   Clear
6:15 PM 50.0 °F - 25.7 °F 39% 29.75 in 10.0 mi WNW 26.5 mph 38.0 mph N/A   Clear
6:35 PM 48.6 °F - 26.6 °F 42% 29.75 in 10.0 mi WNW 18.4 mph 27.6 mph N/A   Clear
6:55 PM 47.3 °F - 26.4 °F 44% 29.75 in 10.0 mi WNW 20.7 mph 27.6 mph N/A   Clear
7:15 PM 46.9 °F - 26.2 °F 44% 29.75 in 10.0 mi WNW 24.2 mph 29.9 mph N/A   Clear
7:35 PM 46.6 °F - 26.2 °F 45% 29.75 in 10.0 mi WNW 25.3 mph 28.8 mph N/A   Clear
7:55 PM 46.4 °F 38.1 °F 26.4 °F 46% 29.76 in 10.0 mi WNW 24.2 mph 36.8 mph N/A   Clear
8:15 PM 45.7 °F 39.1 °F 27.1 °F 48% 29.77 in 10.0 mi WNW 15.0 mph - N/A   Mostly Cloudy
8:35 PM 44.6 °F 38.4 °F 28.0 °F 52% 29.78 in 10.0 mi West 12.7 mph - N/A   Overcast
8:55 PM 44.6 °F 37.8 °F 27.5 °F 51% 29.79 in 10.0 mi West 15.0 mph - N/A   Overcast
9:15 PM 42.3 °F 36.3 °F 27.3 °F 56% 29.79 in 10.0 mi West 10.4 mph - N/A   Scattered Clouds
9:35 PM 40.6 °F 34.3 °F 27.5 °F 59% 29.79 in 10.0 mi West 10.4 mph - N/A   Scattered Clouds
9:55 PM 42.3 °F 34.1 °F 27.5 °F 56% 29.79 in 10.0 mi WNW 17.3 mph 24.2 mph N/A   Scattered Clouds
10:15 PM 43.9 °F 36.2 °F 28.0 °F 54% 29.80 in 10.0 mi West 17.3 mph 24.2 mph N/A   Mostly Cloudy
10:35 PM 42.8 °F 36.2 °F 28.4 °F 57% 29.81 in 10.0 mi West 12.7 mph - N/A   Scattered Clouds
10:55 PM 42.1 °F 34.9 °F 29.1 °F 60% 29.82 in 10.0 mi WNW 13.8 mph - N/A   Scattered Clouds
11:15 PM 44.2 °F 36.4 °F 30.2 °F 58% 29.82 in 10.0 mi WNW 18.4 mph 23.0 mph N/A   Mostly Cloudy
11:35 PM 46.9 °F - 30.2 °F 52% 29.83 in 10.0 mi WNW 20.7 mph 26.5 mph N/A   Overcast
11:55 PM 43.3 °F 35.5 °F 34.7 °F 72% 29.84 in 10.0 mi NNW 17.3 mph 25.3 mph N/A Rain Light Rain